Northeast Philadelphia, PA

6:35 AM EST on December 13, 2019 (GMT -0500)
Northeast Philadelphia

Weather History for KPNE - November, 2019

Change the Weather History Date:

Saturday, November 16, 2019

  Actual Average Record
Temperature  
Mean Temperature 38 °F -  
Max Temperature 44 °F 52 °F 75 °F (2005)
Min Temperature 32 °F 34 °F 21 °F (1996)
Degree Days  
Heating Degree Days 27    
Moisture  
Dew Point 12 °F    
Average Humidity 38    
Maximum Humidity 67    
Minimum Humidity 18    
Precipitation  
Precipitation 0.00 in - - ()
Sea Level Pressure  
Sea Level Pressure 30.40 in    
Wind  
Wind Speed 10 mph ()    
Max Wind Speed 20 mph    
Max Gust Speed 32 mph    
Visibility 10.0 miles    
Events      
Averages and records for this station are not official NWS values.
T = Trace of Precipitation, MM = Missing Value Source: Averaged Metar Reports

Daily Weather History Graph

Daily Weather History Graph

Search for Another Location

Airport or City:

Astronomy

Nov. 16, 2019 Rise Set
Actual Time 6:46 AM EST 4:42 PM EST
Civil Twilight 6:17 AM EST 5:11 PM EST
Nautical Twilight 5:44 AM EST 5:44 PM EST
Astronomical Twilight 5:12 AM EST 6:16 PM EST
Moon 8:13 PM EST (11/16) 10:37 AM EST (11/16)
Length of Visible Light 10h 54m
Length of Day
9h 56m
Waning Gibbous, 82% of the Moon is Illuminated
Nov 16
Waning Gibbous
Nov 19
Last Quarter
Nov 26
New
Dec 4
First Quarter
Dec 12
Full

Hourly Weather History & Observations

Time (EST) Temp. Windchill Dew Point Humidity Pressure Visibility Wind Dir Wind Speed Gust Speed Precip Events Conditions
12:54 AM 37.0 °F 32.4 °F 27.0 °F 67% 30.27 in 10.0 mi North 5.8 mph - N/A   Clear
1:54 AM 37.0 °F 31.0 °F 26.1 °F 65% 30.27 in 10.0 mi North 8.1 mph - N/A   Clear
2:54 AM 35.1 °F 31.0 °F 25.0 °F 67% 30.28 in 10.0 mi North 4.6 mph - N/A   Clear
3:54 AM 36.0 °F 29.6 °F 24.1 °F 62% 30.30 in 10.0 mi North 8.1 mph - N/A   Clear
4:54 AM 36.0 °F 29.6 °F 24.1 °F 62% 30.32 in 10.0 mi North 8.1 mph - N/A   Clear
5:54 AM 37.0 °F 29.3 °F 24.1 °F 59% 30.35 in 10.0 mi NNE 11.5 mph - N/A   Clear
6:54 AM 39.0 °F 30.3 °F 24.1 °F 55% 30.39 in 10.0 mi NNE 16.1 mph - N/A   Overcast
7:54 AM 39.0 °F 29.3 °F 19.9 °F 46% 30.42 in 10.0 mi NE 19.6 mph 29.9 mph N/A   Scattered Clouds
8:54 AM 39.0 °F 29.3 °F 9.0 °F 29% 30.43 in 10.0 mi NNE 19.6 mph 29.9 mph N/A   Clear
9:54 AM 39.9 °F 31.8 °F 8.1 °F 27% 30.45 in 10.0 mi ENE 15.0 mph - N/A   Clear
10:54 AM 42.1 °F 33.9 °F 7.0 °F 24% 30.45 in 10.0 mi NE 17.3 mph 32.2 mph N/A   Clear
11:54 AM 43.0 °F 35.1 °F 7.0 °F 23% 30.45 in 10.0 mi ENE 17.3 mph 26.5 mph N/A   Clear
12:54 PM 44.1 °F 37.1 °F 5.0 °F 20% 30.43 in 10.0 mi ENE 15.0 mph 27.6 mph N/A   Clear
1:54 PM 44.1 °F 36.5 °F 3.0 °F 18% 30.42 in 10.0 mi East 17.3 mph 28.8 mph N/A   Clear
2:54 PM 43.0 °F 35.1 °F 3.0 °F 19% 30.43 in 10.0 mi ENE 17.3 mph 27.6 mph N/A   Clear
3:54 PM 42.1 °F 33.9 °F 3.0 °F 20% 30.43 in 10.0 mi East 17.3 mph 21.9 mph N/A   Clear
4:54 PM 39.9 °F 31.4 °F 1.9 °F 20% 30.43 in 10.0 mi ENE 16.1 mph - N/A   Clear
5:54 PM 37.0 °F 29.8 °F 3.0 °F 24% 30.45 in 10.0 mi East 10.4 mph - N/A   Clear
6:54 PM 34.0 °F 27.2 °F 6.1 °F 31% 30.46 in 10.0 mi ENE 8.1 mph - N/A   Clear
7:54 PM 32.0 °F 24.2 °F 7.0 °F 35% 30.45 in 10.0 mi NE 9.2 mph - N/A   Clear
8:54 PM 34.0 °F 25.5 °F 5.0 °F 30% 30.44 in 10.0 mi NNE 11.5 mph - N/A   Clear
9:54 PM 33.1 °F 23.4 °F 6.1 °F 32% 30.42 in 10.0 mi NNE 13.8 mph - N/A   Clear
10:54 PM 33.1 °F 23.9 °F 6.1 °F 32% 30.43 in 10.0 mi NNE 12.7 mph - N/A   Clear
11:54 PM 32.0 °F 23.0 °F 7.0 °F 35% 30.43 in 10.0 mi NNE 11.5 mph - N/A   Partly Cloudy